TimePST,TemperatureF,Dew PointF,Humidity,Sea Level PressureIn,VisibilityMPH,Wind Direction,Wind SpeedMPH,Gust SpeedMPH,PrecipitationIn,Events,Conditions,WindDirDegrees,DateUTC
12:58 AM,29.5,29.5,100,29.79,10.0,South,8.1,-,N/A,,Scattered Clouds,180,2013-01-10 08:58:00
1:19 AM,28.4,28.4,100,29.73,10.0,South,11.5,-,N/A,,Clear,190,2013-01-10 09:19:00
1:38 AM,28.4,28.4,100,29.74,10.0,South,12.7,-,N/A,,Clear,190,2013-01-10 09:38:00
1:58 AM,28.8,28.8,100,29.80,10.0,South,11.5,-,0.00,,Clear,190,2013-01-10 09:58:00
2:58 AM,28.0,28.0,100,29.81,10.0,SSW,8.1,-,N/A,,Clear,210,2013-01-10 10:58:00
2:59 AM,28.4,28.4,100,29.74,10.0,SSW,9.2,-,N/A,,Clear,200,2013-01-10 10:59:00
3:10 AM,28.4,28.4,100,29.74,10.0,SSW,13.8,-,N/A,,Clear,200,2013-01-10 11:10:00
3:58 AM,27.0,27.0,100,29.81,10.0,SSW,9.2,-,0.00,,Clear,210,2013-01-10 11:58:00
4:58 AM,25.0,25.0,100,29.82,10.0,SSW,6.9,-,N/A,,Partly Cloudy,200,2013-01-10 12:58:00
5:48 AM,24.8,24.8,100,29.74,10.0,SSW,10.4,-,N/A,,Clear,210,2013-01-10 13:48:00
5:58 AM,24.3,24.3,100,29.82,10.0,SSW,5.8,-,0.00,,Clear,210,2013-01-10 13:58:00
6:15 AM,24.8,24.8,100,29.76,10.0,SE,5.8,-,N/A,,Clear,140,2013-01-10 14:15:00
6:58 AM,22.3,22.3,100,29.85,10.0,West,2.3,-,0.00,,Clear,280,2013-01-10 14:58:00
7:10 AM,23.0,23.0,100,29.77,10.0,SSW,8.1,-,N/A,,Clear,210,2013-01-10 15:10:00
7:20 AM,23.0,23.0,100,29.77,10.0,South,8.1,-,N/A,,Clear,190,2013-01-10 15:20:00
7:42 AM,23.0,23.0,100,29.77,10.0,SW,3.5,-,N/A,,Mostly Cloudy,220,2013-01-10 15:42:00
7:55 AM,23.0,23.0,100,29.78,10.0,South,3.5,-,N/A,,Overcast,190,2013-01-10 15:55:00
8:40 AM,21.2,21.2,100,29.79,10.0,South,4.6,-,N/A,,Mostly Cloudy,170,2013-01-10 16:40:00
8:43 AM,21.2,21.2,100,29.79,10.0,SSE,4.6,-,N/A,,Mostly Cloudy,160,2013-01-10 16:43:00
8:49 AM,23.0,23.0,100,29.79,10.0,SE,2.3,-,N/A,,Mostly Cloudy,130,2013-01-10 16:49:00
8:55 AM,23.0,23.0,100,29.80,10.0,South,4.6,-,N/A,,Overcast,170,2013-01-10 16:55:00
9:34 AM,24.8,24.8,100,29.79,10.0,South,4.6,-,N/A,,Overcast,190,2013-01-10 17:34:00
9:50 AM,24.8,24.8,100,29.79,10.0,SW,4.6,-,N/A,,Overcast,220,2013-01-10 17:50:00
9:55 AM,24.8,24.8,100,29.79,10.0,SW,3.5,-,N/A,,Overcast,220,2013-01-10 17:55:00
10:55 AM,25.5,25.5,100,29.86,10.0,WNW,1.2,-,N/A,,Overcast,300,2013-01-10 18:55:00
11:11 AM,24.8,24.8,100,29.78,10.0,SSW,2.3,-,N/A,Snow,Light Snow,210,2013-01-10 19:11:00
11:55 AM,27.1,27.1,100,29.85,10.0,WSW,3.5,-,0.00,Snow,Light Snow,250,2013-01-10 19:55:00
12:55 PM,27.1,27.1,100,29.85,10.0,SW,3.5,-,0.00,Snow,Light Snow,230,2013-01-10 20:55:00
1:12 PM,28.4,28.4,100,29.77,10.0,WNW,4.6,-,N/A,,Overcast,290,2013-01-10 21:12:00
1:13 PM,28.4,28.4,100,29.77,10.0,WNW,5.8,-,N/A,,Overcast,290,2013-01-10 21:13:00
1:55 PM,28.4,28.4,100,29.77,10.0,NW,6.9,-,N/A,,Overcast,320,2013-01-10 21:55:00
2:06 PM,30.2,30.2,100,29.77,10.0,NW,5.8,-,N/A,,Overcast,310,2013-01-10 22:06:00
2:08 PM,30.2,30.2,100,29.77,10.0,WNW,4.6,-,N/A,,Overcast,300,2013-01-10 22:08:00
2:10 PM,30.2,30.2,100,29.77,10.0,NW,3.5,-,N/A,,Overcast,310,2013-01-10 22:10:00
2:27 PM,30.2,30.2,100,29.78,10.0,WNW,3.5,-,N/A,,Overcast,300,2013-01-10 22:27:00
2:47 PM,30.2,30.2,100,29.78,10.0,NW,2.3,-,N/A,,Overcast,310,2013-01-10 22:47:00
2:48 PM,30.2,30.2,100,29.78,10.0,NW,2.3,-,N/A,,Overcast,310,2013-01-10 22:48:00
2:58 PM,30.2,30.0,99,29.86,10.0,NW,3.5,-,0.00,,Overcast,310,2013-01-10 22:58:00
3:38 PM,30.2,30.2,100,29.79,10.0,WSW,4.6,-,N/A,,Overcast,250,2013-01-10 23:38:00
3:43 PM,30.2,30.2,100,29.79,10.0,WSW,3.5,-,N/A,,Overcast,240,2013-01-10 23:43:00
3:58 PM,29.3,29.3,100,29.86,10.0,WSW,4.6,-,0.00,,Overcast,240,2013-01-10 23:58:00
4:03 PM,28.4,28.4,100,29.79,10.0,SW,5.8,-,N/A,,Overcast,230,2013-01-11 00:03:00
4:19 PM,28.4,28.4,100,29.79,10.0,SW,5.8,-,N/A,,Overcast,230,2013-01-11 00:19:00
4:49 PM,28.4,28.4,100,29.79,10.0,WSW,6.9,-,N/A,,Overcast,240,2013-01-11 00:49:00
4:58 PM,28.4,28.4,100,29.88,10.0,WSW,5.8,-,0.00,,Overcast,250,2013-01-11 00:58:00
5:07 PM,28.4,28.4,100,29.79,10.0,West,5.8,-,N/A,,Overcast,260,2013-01-11 01:07:00
5:12 PM,28.4,28.4,100,29.79,10.0,West,5.8,-,N/A,,Overcast,260,2013-01-11 01:12:00
5:47 PM,28.4,28.4,100,29.80,7.0,NW,6.9,-,N/A,Snow,Light Snow,310,2013-01-11 01:47:00
5:58 PM,28.0,28.0,100,29.89,4.0,NNW,5.8,-,0.00,Snow,Light Snow,330,2013-01-11 01:58:00
6:08 PM,26.6,26.6,100,29.80,2.0,NW,6.9,-,N/A,Snow,Light Snow,320,2013-01-11 02:08:00
6:13 PM,26.6,26.6,100,29.80,2.0,NW,5.8,-,N/A,Snow,Light Snow,320,2013-01-11 02:13:00
6:38 PM,26.6,26.6,100,29.80,3.0,North,6.9,-,N/A,Snow,Light Snow,350,2013-01-11 02:38:00
6:58 PM,26.4,26.4,100,29.90,4.0,North,9.2,-,0.00,Snow,Light Snow,350,2013-01-11 02:58:00
7:25 PM,26.6,26.6,100,29.80,7.0,NW,8.1,-,N/A,Snow,Light Snow,320,2013-01-11 03:25:00
7:30 PM,26.6,26.6,100,29.80,5.0,NW,9.2,-,N/A,Snow,Light Snow,320,2013-01-11 03:30:00
7:55 PM,24.8,24.8,100,29.80,5.0,NW,10.4,-,N/A,Snow,Light Snow,320,2013-01-11 03:55:00
7:58 PM,24.8,24.8,100,29.80,5.0,NW,11.5,-,0.01,Snow,Light Snow,320,2013-01-11 03:58:00
8:03 PM,24.8,24.8,100,29.80,6.0,NW,10.4,-,N/A,Snow,Light Snow,320,2013-01-11 04:03:00
8:13 PM,24.8,24.8,100,29.80,7.0,NW,9.2,-,N/A,Snow,Light Snow,320,2013-01-11 04:13:00
8:28 PM,24.8,24.8,100,29.80,7.0,NW,9.2,-,N/A,Snow,Light Snow,310,2013-01-11 04:28:00
8:38 PM,24.8,24.8,100,29.80,8.0,NW,11.5,-,N/A,Snow,Light Snow,310,2013-01-11 04:38:00
8:58 PM,25.2,25.2,100,29.80,9.0,NW,17.3,-,0.00,Snow,Light Snow,310,2013-01-11 04:58:00
9:03 PM,24.8,24.8,100,29.80,10.0,NW,18.4,-,N/A,Snow,Light Snow,310,2013-01-11 05:03:00
9:04 PM,24.8,24.8,100,29.80,10.0,NW,17.3,-,N/A,Snow,Light Snow,310,2013-01-11 05:04:00
9:09 PM,24.8,24.8,100,29.80,10.0,NW,15.0,-,N/A,Snow,Light Snow,310,2013-01-11 05:09:00
9:14 PM,24.8,24.8,100,29.80,10.0,NW,13.8,-,N/A,Snow,Light Snow,310,2013-01-11 05:14:00
9:24 PM,24.8,24.8,100,29.80,10.0,NW,15.0,-,N/A,Snow,Light Snow,320,2013-01-11 05:24:00
9:29 PM,24.8,24.8,100,29.80,10.0,NW,15.0,-,N/A,Snow,Light Snow,310,2013-01-11 05:29:00
9:46 PM,24.8,24.8,100,29.81,10.0,NW,12.7,-,N/A,Snow,Light Snow,320,2013-01-11 05:46:00
9:47 PM,24.8,24.8,100,29.81,10.0,NW,13.8,-,N/A,Snow,Light Snow,320,2013-01-11 05:47:00
9:55 PM,24.8,24.8,100,29.81,10.0,NW,12.7,-,N/A,Snow,Light Snow,320,2013-01-11 05:55:00
10:09 PM,24.8,24.8,100,29.81,10.0,NW,11.5,-,N/A,Snow,Light Snow,320,2013-01-11 06:09:00
10:38 PM,24.8,24.8,100,29.91,7.0,NW,11.5,-,N/A,Snow,Light Snow,320,2013-01-11 06:38:00
10:39 PM,24.8,24.8,100,29.82,10.0,NW,11.5,-,N/A,Snow,Light Snow,320,2013-01-11 06:39:00
10:51 PM,24.8,24.8,100,29.82,10.0,NW,11.5,-,N/A,Snow,Light Snow,320,2013-01-11 06:51:00
10:53 PM,24.8,24.8,100,29.82,10.0,NW,11.5,-,N/A,Snow,Light Snow,320,2013-01-11 06:53:00
10:55 PM,24.8,24.8,100,29.82,10.0,NW,11.5,-,N/A,Snow,Light Snow,320,2013-01-11 06:55:00
11:07 PM,23.0,23.0,100,29.82,10.0,NW,11.5,-,N/A,Snow,Light Snow,320,2013-01-11 07:07:00
11:09 PM,23.0,23.0,100,29.82,10.0,NW,10.4,-,N/A,Snow,Light Snow,320,2013-01-11 07:09:00
11:15 PM,23.0,23.0,100,29.82,10.0,NW,10.4,-,N/A,Snow,Light Snow,320,2013-01-11 07:15:00
11:32 PM,23.0,23.0,100,29.83,10.0,NW,10.4,-,N/A,Snow,Light Snow,320,2013-01-11 07:32:00
11:39 PM,23.0,23.0,100,29.83,10.0,NW,10.4,-,N/A,Snow,Light Snow,320,2013-01-11 07:39:00
11:50 PM,23.0,23.0,100,29.83,10.0,NW,12.7,-,N/A,Snow,Light Snow,320,2013-01-11 07:50:00
11:55 PM,23.0,23.0,100,29.83,10.0,NW,12.7,-,N/A,Snow,Light Snow,320,2013-01-11 07:55:00